Time,TemperatureF,DewpointF,PressureIn,WindDirection,WindDirectionDegrees,WindSpeedMPH,WindSpeedGustMPH,Humidity,HourlyPrecipIn,Conditions,Clouds,dailyrainin,SoftwareType,DateUTC
2013-07-08 00:01:00,79.0,61.0,-100.00,SSE,152,3.0,3.0,54,0.00,,,0.00,,2013-07-08 05:01:00,
2013-07-08 00:11:00,78.0,61.0,-100.00,SE,143,3.0,4.0,55,0.00,,,0.00,,2013-07-08 05:11:00,
2013-07-08 00:22:00,78.0,61.0,-100.00,SE,145,7.0,7.0,56,0.00,,,0.00,,2013-07-08 05:22:00,
2013-07-08 00:33:00,79.0,62.0,-100.00,SSE,156,7.0,7.0,56,0.00,,,0.00,,2013-07-08 05:33:00,
2013-07-08 00:43:00,79.0,62.0,-100.00,SSE,150,8.0,8.0,56,0.00,,,0.00,,2013-07-08 05:43:00,
2013-07-08 00:53:00,80.0,63.0,-100.00,East,101,8.0,8.0,57,0.00,,,0.00,,2013-07-08 05:53:00,
2013-07-08 01:01:00,81.0,64.0,-100.00,South,183,8.0,8.0,57,0.00,,,0.00,,2013-07-08 06:01:00,
2013-07-08 01:11:00,80.0,64.0,-100.00,SSE,152,8.0,8.0,59,0.00,,,0.00,,2013-07-08 06:11:00,
2013-07-08 01:22:00,80.0,65.0,-100.00,SSE,162,7.0,7.0,60,0.00,,,0.00,,2013-07-08 06:22:00,
2013-07-08 01:33:00,80.0,66.0,-100.00,SSE,155,6.0,6.0,62,0.00,,,0.00,,2013-07-08 06:33:00,
2013-07-08 01:43:00,80.0,66.0,-100.00,SSE,167,5.0,5.0,63,0.00,,,0.00,,2013-07-08 06:43:00,
2013-07-08 01:52:00,79.0,66.0,-100.00,SSE,166,5.0,7.0,64,0.00,,,0.00,,2013-07-08 06:52:00,
2013-07-08 02:02:00,79.0,67.0,-100.00,SSE,165,5.0,5.0,66,0.00,,,0.00,,2013-07-08 07:02:00,
2013-07-08 02:12:00,79.0,68.0,-100.00,SSE,156,6.0,8.0,68,0.00,,,0.00,,2013-07-08 07:12:00,
2013-07-08 02:22:00,79.0,68.0,-100.00,SSE,148,6.0,8.0,69,0.00,,,0.00,,2013-07-08 07:22:00,
2013-07-08 02:34:00,78.0,67.0,-100.00,SSE,152,5.0,6.0,70,0.00,,,0.00,,2013-07-08 07:34:00,
2013-07-08 02:44:00,78.0,68.0,-100.00,SSE,159,4.0,4.0,71,0.00,,,0.00,,2013-07-08 07:44:00,
2013-07-08 02:52:00,77.0,67.0,-100.00,SSE,156,3.0,5.0,72,0.00,,,0.00,,2013-07-08 07:52:00,
2013-07-08 03:02:00,77.0,68.0,-100.00,SE,142,4.0,4.0,73,0.00,,,0.00,,2013-07-08 08:02:00,
2013-07-08 03:12:00,77.0,68.0,-100.00,SSE,153,5.0,5.0,75,0.00,,,0.00,,2013-07-08 08:12:00,
2013-07-08 03:22:00,77.0,68.0,-100.00,South,170,4.0,5.0,75,0.00,,,0.00,,2013-07-08 08:22:00,
2013-07-08 03:33:00,77.0,69.0,-100.00,South,174,4.0,5.0,76,0.00,,,0.00,,2013-07-08 08:33:00,
2013-07-08 03:42:00,76.0,68.0,-100.00,SE,146,6.0,6.0,77,0.00,,,0.00,,2013-07-08 08:42:00,
2013-07-08 03:52:00,76.0,68.0,-100.00,SE,128,6.0,6.0,77,0.00,,,0.00,,2013-07-08 08:52:00,
2013-07-08 04:01:00,76.0,69.0,-100.00,SSE,156,5.0,5.0,78,0.00,,,0.00,,2013-07-08 09:01:00,
2013-07-08 04:11:00,76.0,69.0,-100.00,SSE,150,4.0,4.0,79,0.00,,,0.00,,2013-07-08 09:11:00,
2013-07-08 04:22:00,76.0,69.0,-100.00,SE,146,3.0,3.0,79,0.00,,,0.00,,2013-07-08 09:22:00,
2013-07-08 04:34:00,75.0,68.0,-100.00,ESE,108,2.0,2.0,80,0.00,,,0.00,,2013-07-08 09:34:00,
2013-07-08 04:43:00,75.0,69.0,-100.00,ESE,104,2.0,3.0,81,0.00,,,0.00,,2013-07-08 09:43:00,
2013-07-08 04:52:00,74.0,68.0,-100.00,SE,142,2.0,2.0,82,0.00,,,0.00,,2013-07-08 09:52:00,
2013-07-08 05:01:00,74.0,68.0,-100.00,SE,132,3.0,3.0,83,0.00,,,0.00,,2013-07-08 10:01:00,
2013-07-08 05:11:00,74.0,69.0,-100.00,SE,146,4.0,4.0,84,0.00,,,0.00,,2013-07-08 10:11:00,
2013-07-08 05:22:00,74.0,69.0,-100.00,ESE,117,4.0,5.0,84,0.00,,,0.00,,2013-07-08 10:22:00,
2013-07-08 05:34:00,74.0,69.0,-100.00,SE,132,4.0,5.0,85,0.00,,,0.00,,2013-07-08 10:34:00,
2013-07-08 05:53:00,74.0,69.0,-100.00,SE,135,3.0,3.0,85,0.00,,,0.00,,2013-07-08 10:53:00,
2013-07-08 06:02:00,73.0,68.0,-100.00,SE,142,3.0,3.0,85,0.00,,,0.00,,2013-07-08 11:02:00,
2013-07-08 06:11:00,73.0,68.0,-100.00,South,174,4.0,4.0,85,0.00,,,0.00,,2013-07-08 11:11:00,
2013-07-08 06:22:00,73.0,69.0,-100.00,South,169,4.0,4.0,86,0.00,,,0.00,,2013-07-08 11:22:00,
2013-07-08 06:33:00,74.0,70.0,-100.00,SE,142,3.0,3.0,86,0.00,,,0.00,,2013-07-08 11:33:00,
2013-07-08 06:43:00,74.0,70.0,-100.00,SSE,158,0.0,0.0,86,0.00,,,0.00,,2013-07-08 11:43:00,
2013-07-08 06:52:00,73.0,69.0,-100.00,NW,315,0.0,1.0,87,0.00,,,0.00,,2013-07-08 11:52:00,
2013-07-08 07:01:00,73.0,69.0,-100.00,NW,316,0.0,0.0,86,0.00,,,0.00,,2013-07-08 12:01:00,
2013-07-08 07:11:00,73.0,69.0,-100.00,NW,316,0.0,0.0,87,0.00,,,0.00,,2013-07-08 12:11:00,
2013-07-08 07:22:00,73.0,69.0,-100.00,NW,316,0.0,0.0,86,0.00,,,0.00,,2013-07-08 12:22:00,
2013-07-08 07:33:00,75.0,70.0,-100.00,NW,316,0.0,0.0,84,0.00,,,0.00,,2013-07-08 12:33:00,
2013-07-08 07:43:00,76.0,70.0,-100.00,NW,316,0.0,0.0,81,0.00,,,0.00,,2013-07-08 12:43:00,
2013-07-08 07:53:00,76.0,70.0,-100.00,NW,316,0.0,0.0,81,0.00,,,0.00,,2013-07-08 12:53:00,
2013-07-08 08:01:00,76.0,70.0,-100.00,NW,316,0.0,0.0,81,0.00,,,0.00,,2013-07-08 13:01:00,
2013-07-08 08:11:00,77.0,71.0,-100.00,NW,316,0.0,0.0,81,0.00,,,0.00,,2013-07-08 13:11:00,
2013-07-08 08:22:00,77.0,71.0,-100.00,NW,316,0.0,0.0,81,0.00,,,0.00,,2013-07-08 13:22:00,
2013-07-08 08:33:00,80.0,72.0,-100.00,ESE,105,4.0,4.0,78,0.00,,,0.00,,2013-07-08 13:33:00,
2013-07-08 18:28:00,100.0,64.0,-100.00,SSE,156,11.0,15.0,31,0.00,,,0.00,,2013-07-08 23:28:00,
2013-07-08 21:35:00,-999.0,-99.9,-100.00,SE,128,11.0,11.0,92,0.00,,,0.00,,2013-07-09 02:35:00,